Weather reports worldwide

Advertisment
Las Palmas De Gran Canaria, Spain (60030): temperature & dewpoint: 17.01.2019 23:00:00 - 23.01.2019 23:00:00 (WET)Las Palmas De Gran Canaria, Spain (60030): wind speed: 17.01.2019 23:00:00 - 23.01.2019 23:00:00 (WET)Las Palmas De Gran Canaria, Spain (60030): wind direction: 17.01.2019 23:00:00 - 23.01.2019 23:00:00 (WET)Las Palmas De Gran Canaria, Spain (60030): reduced air pressure: 17.01.2019 23:00:00 - 23.01.2019 23:00:00 (WET)Las Palmas De Gran Canaria, Spain (60030): visibility: 17.01.2019 23:00:00 - 23.01.2019 23:00:00 (WET)Las Palmas De Gran Canaria, Spain (60030): precipitation: 17.01.2019 23:00:00 - 23.01.2019 23:00:00 (WET)
Date & Time tt [°C] td [°C] ff [km/h] ff [kn] dd ppp [hPa] vv [km] rr [mm]
23.01.2019 23:00:00 16,4 10,8 16 9 N 1022,6 10 -
23.01.2019 22:00:00 15,4 12,3 35 19 NNE 1022,7 10 -
23.01.2019 21:00:00 16,7 10,8 22 12 N 1022,9 15 -
23.01.2019 20:00:00 16,9 10,2 21 11 N 1022,9 10 -
23.01.2019 19:00:00 17,4 11,0 34 18 N 1022,7 10 -
23.01.2019 18:00:00 17,8 10,2 18 10 N 1022,7 20 -
23.01.2019 17:00:00 18,1 8,7 28 15 N 1023,1 10 -
23.01.2019 16:00:00 18,5 8,6 31 17 N 1023,3 10 -
23.01.2019 15:00:00 18,7 8,1 34 18 N 1023,7 10 -
23.01.2019 14:00:00 18,6 8,2 37 20 N 1024,5 10 -
23.01.2019 13:00:00 17,9 8,4 37 20 NNE 1025,5 10 -
23.01.2019 12:00:00 17,8 8,4 28 15 N 1026,2 25 -
23.01.2019 11:00:00 17,3 8,6 18 10 N 1026,5 10 -
23.01.2019 10:00:00 16,9 8,2 26 14 N 1026,1 10 -
23.01.2019 09:00:00 16,6 8,4 22 12 N 1025,7 25 -
23.01.2019 08:00:00 16,3 8,1 31 17 NNE 1025,4 10 -
23.01.2019 07:00:00 16,8 8,8 35 19 NNE 1025,2 10 -
23.01.2019 06:00:00 16,7 10,0 31 17 NNE 1024,8 10 -
23.01.2019 05:00:00 16,8 8,9 24 13 N 1025,1 10 -
23.01.2019 04:00:00 16,8 9,1 35 19 NNE 1025,5 10 -
23.01.2019 03:00:00 16,7 9,1 22 12 NNE 1025,8 10 -
23.01.2019 02:00:00 17,0 8,8 34 18 NNE 1026,0 10 -
23.01.2019 01:00:00 17,2 9,4 35 19 NNE 1026,1 10 -
23.01.2019 00:00:00 17,2 7,4 26 14 N 1026,4 20 -
22.01.2019 23:00:00 17,1 8,9 29 16 N 1026,2 10 -
22.01.2019 22:00:00 17,0 7,8 24 13 N 1026,2 10 -
22.01.2019 21:00:00 17,0 8,7 34 18 NNE 1025,8 10 -
22.01.2019 20:00:00 17,0 8,8 31 17 N 1025,0 10 -
22.01.2019 19:00:00 17,5 10,3 34 18 NNE 1024,6 10 -
22.01.2019 18:00:00 17,8 10,0 24 13 N 1024,5 18 -
22.01.2019 17:00:00 18,4 8,8 28 15 N 1024,7 10 -
22.01.2019 16:00:00 19,2 8,8 29 16 N 1024,6 10 -
22.01.2019 15:00:00 19,7 8,6 35 19 N 1024,9 10 -
22.01.2019 14:00:00 19,0 7,0 29 16 N 1025,4 10 -
22.01.2019 13:00:00 19,2 6,9 34 18 NNE 1026,6 10 -
22.01.2019 12:00:00 19,3 7,4 37 20 NE 1027,2 10 -
22.01.2019 11:00:00 19,0 7,7 39 21 NNE 1026,8 10 -
22.01.2019 10:00:00 18,2 9,4 35 19 NE 1026,2 10 -
22.01.2019 09:00:00 16,4 9,9 24 13 NNW 1025,5 10 -
22.01.2019 08:00:00 16,2 10,8 35 19 N 1025,3 10 -
22.01.2019 07:00:00 15,9 7,8 22 12 N 1024,6 10 -
22.01.2019 06:00:00 16,5 9,5 31 17 NNE 1024,3 10 -
22.01.2019 05:00:00 15,6 7,5 16 9 N 1024,2 10 -
22.01.2019 04:00:00 16,2 7,0 22 12 N 1024,5 10 -
22.01.2019 03:00:00 16,2 5,7 34 18 N 1024,6 10 -
22.01.2019 02:00:00 16,4 7,8 29 16 N 1024,8 10 -
22.01.2019 01:00:00 16,7 8,5 37 20 NNE 1024,7 10 -
22.01.2019 00:00:00 15,5 11,0 24 13 NNW 1025,0 10 -
21.01.2019 23:00:00 16,1 10,9 16 9 N 1025,0 10 -
21.01.2019 22:00:00 16,6 10,8 21 11 N 1024,8 10 -
21.01.2019 21:00:00 16,6 10,8 29 16 N 1024,9 10 -
21.01.2019 20:00:00 16,7 10,4 31 17 N 1024,3 10 -
21.01.2019 19:00:00 17,1 10,2 22 12 N 1024,2 10 -
21.01.2019 18:00:00 17,5 11,1 34 18 N 1024,0 10 -
21.01.2019 17:00:00 17,8 10,2 28 15 N 1023,8 10 -
21.01.2019 16:00:00 19,0 11,4 37 20 N 1023,9 10 -
21.01.2019 15:00:00 18,2 10,9 34 18 N 1024,0 10 -
21.01.2019 14:00:00 16,1 13,8 41 22 NNE 1024,7 9 -
21.01.2019 13:00:00 19,2 10,0 34 18 N 1025,0 10 -
21.01.2019 12:00:00 19,3 9,3 37 20 NNE 1025,3 25 -
21.01.2019 11:00:00 18,0 11,5 31 17 N 1025,6 10 -
21.01.2019 10:00:00 17,4 12,2 41 22 NNE 1025,1 10 -
21.01.2019 09:00:00 17,8 11,9 26 14 N 1024,6 10 -
21.01.2019 08:00:00 16,0 12,3 22 12 N 1024,4 10 -
21.01.2019 07:00:00 16,5 13,0 26 14 N 1023,9 10 -
21.01.2019 06:00:00 15,9 12,7 13 7 N 1023,6 20 -
21.01.2019 05:00:00 15,4 13,2 24 13 N 1023,9 10 -
21.01.2019 04:00:00 15,9 12,7 16 9 N 1024,2 10 -
21.01.2019 03:00:00 15,5 12,4 16 9 N 1024,3 10 -
21.01.2019 02:00:00 15,7 12,0 16 9 NNW 1024,9 10 -
21.01.2019 01:00:00 16,1 12,9 11 6 N 1025,3 10 -
21.01.2019 00:00:00 16,6 13,4 22 12 N 1026,0 10 -
20.01.2019 23:00:00 15,9 14,3 15 8 N 1025,9 10 -
20.01.2019 22:00:00 16,3 13,7 26 14 NNW 1025,5 10 -
20.01.2019 21:00:00 17,7 12,9 28 15 N 1025,2 10 -
20.01.2019 20:00:00 18,0 11,5 21 11 NNW 1024,6 10 -
20.01.2019 19:00:00 18,4 10,8 24 13 NNW 1024,4 10 -
20.01.2019 18:00:00 19,7 10,4 13 7 N 1024,3 25 -
20.01.2019 17:00:00 20,6 10,3 16 9 N 1024,3 10 -
20.01.2019 16:00:00 20,9 11,0 16 9 N 1024,5 10 -
20.01.2019 15:00:00 21,3 10,7 21 11 NNW 1024,4 30 -
20.01.2019 14:00:00 20,8 9,9 28 15 N 1025,1 10 -
20.01.2019 13:00:00 20,2 8,6 35 19 N 1026,5 10 -
20.01.2019 12:00:00 18,4 11,2 26 14 N 1027,4 10 -
20.01.2019 11:00:00 19,5 9,9 21 11 N 1027,8 10 -
20.01.2019 10:00:00 17,7 10,0 18 10 N 1027,3 10 -
20.01.2019 09:00:00 16,9 10,7 22 12 N 1026,8 10 -
20.01.2019 08:00:00 16,6 10,5 24 13 NNW 1026,3 10 -
20.01.2019 07:00:00 16,6 10,8 18 10 N 1026,3 10 -
20.01.2019 06:00:00 16,4 11,0 18 10 NNW 1026,1 20 -
20.01.2019 05:00:00 16,7 10,5 24 13 N 1026,3 10 -
20.01.2019 04:00:00 17,0 9,9 22 12 NNW 1026,7 10 -
20.01.2019 03:00:00 16,9 9,4 24 13 NNW 1026,7 10 -
20.01.2019 02:00:00 16,7 9,6 21 11 NNW 1027,1 10 -
20.01.2019 01:00:00 16,5 10,9 24 13 N 1027,1 10 -
20.01.2019 00:00:00 16,7 10,5 18 10 N 1027,3 20 -
19.01.2019 23:00:00 16,8 10,5 16 9 N 1027,4 10 -
19.01.2019 22:00:00 16,9 10,6 21 11 N 1027,3 10 -
19.01.2019 21:00:00 16,0 12,1 24 13 NNW 1027,2 10 0,0
19.01.2019 20:00:00 16,5 12,9 15 8 N 1026,7 10 -
19.01.2019 19:00:00 16,2 12,8 13 7 N 1026,2 10 -
19.01.2019 18:00:00 17,4 12,4 31 17 NNE 1025,8 10 -
19.01.2019 17:00:00 17,6 12,2 29 16 N 1025,9 10 -
19.01.2019 16:00:00 17,6 12,4 34 18 NNE 1025,9 10 -
19.01.2019 15:00:00 18,9 11,5 39 21 N 1025,8 10 -
19.01.2019 14:00:00 18,3 12,9 37 20 NNE 1026,7 10 -
19.01.2019 13:00:00 17,5 12,6 21 11 N 1027,5 10 -
19.01.2019 12:00:00 18,5 11,8 26 14 N 1028,1 10 -
19.01.2019 11:00:00 17,5 11,2 28 15 N 1028,5 10 -
19.01.2019 10:00:00 16,2 11,9 18 10 N 1027,6 10 -
19.01.2019 09:00:00 15,3 12,8 16 9 NNW 1026,7 22 -
19.01.2019 08:00:00 15,8 11,5 16 9 N 1026,5 10 -
19.01.2019 07:00:00 16,6 9,9 22 12 N 1025,6 10 -
19.01.2019 06:00:00 16,1 9,7 21 11 N 1025,1 10 -
19.01.2019 05:00:00 16,5 9,0 24 13 N 1025,0 10 -
19.01.2019 04:00:00 16,8 9,4 26 14 N 1025,3 10 -
19.01.2019 03:00:00 16,9 8,7 29 16 N 1025,5 10 -
19.01.2019 02:00:00 16,5 10,1 16 9 N 1025,5 10 -
19.01.2019 01:00:00 16,4 10,3 18 10 NNW 1025,7 10 -
19.01.2019 00:00:00 16,2 9,7 28 15 N 1026,0 10 -
18.01.2019 23:00:00 16,0 9,5 28 15 N 1026,0 10 -
18.01.2019 22:00:00 16,2 9,1 22 12 N 1025,6 10 -
18.01.2019 21:00:00 16,8 10,2 18 10 N 1025,2 15 -
18.01.2019 20:00:00 16,5 9,4 28 15 N 1024,6 10 -
18.01.2019 19:00:00 16,9 10,0 22 12 N 1024,1 10 -
18.01.2019 18:00:00 17,6 9,4 31 17 N 1023,9 10 -
18.01.2019 17:00:00 17,9 9,1 24 13 N 1023,2 10 -
18.01.2019 16:00:00 18,2 10,3 37 20 N 1023,0 10 -
18.01.2019 15:00:00 18,3 10,3 35 19 N 1022,6 10 -
18.01.2019 14:00:00 18,4 11,1 41 22 N 1023,0 10 -
18.01.2019 13:00:00 18,7 12,5 39 21 NNE 1023,7 10 -
18.01.2019 12:00:00 18,3 11,9 37 20 N 1024,4 10 -
18.01.2019 11:00:00 18,4 11,9 35 19 N 1024,1 10 -
18.01.2019 10:00:00 17,8 11,2 24 13 N 1023,6 10 -
18.01.2019 09:00:00 16,5 11,2 18 10 N 1022,9 10 -
18.01.2019 08:00:00 15,0 11,0 21 11 N 1022,3 10 -
18.01.2019 07:00:00 15,2 10,6 21 11 N 1021,6 10 -
18.01.2019 06:00:00 15,0 11,3 21 11 N 1021,3 10 -
18.01.2019 05:00:00 14,1 11,8 21 11 N 1021,2 10 -
18.01.2019 04:00:00 14,3 11,7 18 10 N 1021,5 10 -
18.01.2019 03:00:00 14,0 11,7 11 6 N 1021,4 20 -
18.01.2019 02:00:00 14,6 11,3 24 13 NNW 1021,3 10 -
18.01.2019 01:00:00 15,4 11,7 26 14 N 1021,3 10 -
18.01.2019 00:00:00 15,0 11,2 18 10 N 1021,7 10 -
17.01.2019 23:00:00 14,8 11,2 13 7 NNW 1021,6 10 -

tt = temperature
td = dewpoint
ff = wind speed
dd = wind direction
ppp = reduced air pressure
vv = visibility
rr = precipitation

Next stations